Location: Squirrel Cove
(50.1074°N, 124.9139°W)
Time: 14:04:19
(UTC-07:00)

PCSat - Pass Details

Date: 23 May 2022
Orbit: 784 x 795 km, 67.1° (Epoch: 26 June)

Event Time Altitude Azimuth Distance (km) Brightness Sun altitude
Rises 21:54:54 0° 282° (WNW) 3,294 13.9 -6.3°
Reaches altitude 10° 21:58:16 10° 303° (WNW) 2,368 13.7 -6.7°
Maximum altitude 22:01:38 16° 341° (NNW) 1,964 12.7 -7.1°
Drops below altitude 10° 22:05:00 10° 20° (NNE) 2,374 12.4 -7.5°
Sets 22:08:24 0° 41° (NE) 3,306 12.9 -7.9°
